Cloud_Cover
100 100 100 100 100 93 13 36 5 5 52 59 88 15 62 68 100 8 7 3 2 4 0 0 0 3 9 87 4 67 5 0 0 2 0 5 0 8 51 3 3 0 0 3 1 4 4 5 0
100 100 100 100 100 23 3 86 5 34 2 74 90 61 27 78 8 1 12 2 0 4 0 0 0 0 6 0 0 4 0 0 0 3 5 21 94 49 0 0 0 0 6 4 3 5 3 0 5
100 100 100 92 0 3 1 74 2 0 0 9 9 31 8 6 4 2 0 0 0 0 0 5 4 0 0 0 0 0 0 0 3 1 3 6 1 0 0 0 0 5 5 5 5 5 7 5 84
100 100 94 7 17 24 34 71 5 0 1 0 0 0 5 0 0 0 0 0 0 0 0 4 5 16 27 0 0 0 0 0 1 5 4 0 2 3 0 0 0 5 5 5 5 100 100 100 100
100 100 98 6 5 93 19 11 0 0 0 0 0 1 2 0 0 0 0 0 0 0 0 3 4 0 0 0 0 0 0 0 0 0 0 1 4 3 0 4 5 5 26 100 100 100 100 100 100
100 94 100 86 61 4 16 2 8 0 0 0 0 0 0 0 0 0 0 0 0 5 4 1 0 0 1 0 1 0 4 2 0 0 0 2 2 68 88 97 100 98 100 100 100 100 100 100 100
100 98 100 100 89 6 8 4 1 0 0 0 0 0 0 0 0 0 1 4 0 6 27 2 2 5 3 0 0 0 2 4 0 0 4 5 1 78 98 100 100 100 100 100 100 100 100 100 100
100 100 100 62 14 0 15 51 0 0 0 0 0 0 0 0 0 0 0 0 0 0 0 0 5 5 5 5 6 4 5 5 5 5 5 5 5 5 7 5 52 100 100 71 82 41 100 100 100
100 100 96 100 25 6 5 40 63 0 0 0 0 0 0 0 0 0 0 0 0 0 0 0 0 0 0 0 4 5 2 1 2 1 0 5 4 2 5 5 11 68 100 100 100 100 100 100 100
100 100 97 31 100 45 6 8 45 4 0 0 0 0 0 0 0 0 0 0 0 0 0 0 0 0 0 1 3 4 0 4 4 2 0 0 0 0 0 5 5 83 100 100 100 100 98 100 100
100 100 37 98 99 100 100 14 0 0 0 0 0 0 0 0 0 0 0 0 0 0 0 0 0 0 0 0 0 0 0 0 0 3 12 5 2 0 0 5 5 5 74 100 100 100 98 100 100
100 100 23 100 88 58 91 78 98 1 0 5 18 3 0 0 0 0 0 0 0 0 0 0 0 0 4 3 0 0 0 5 1 0 0 0 0 0 0 5 5 11 26 100 100 100 100 100 98
100 100 100 99 100 97 52 77 8 7 1 52 9 100 22 3 2 0 0 0 0 0 0 0 0 0 0 0 0 0 0 0 4 3 3 0 0 0 3 4 5 1 0 96 100 100 100 62 100
100 94 100 85 99 100 75 93 34 95 78 100 100 100 100 88 99 81 3 0 0 0 0 0 0 0 0 0 0 4 4 3 0 3 5 5 5 2 0 2 6 42 4 2 34 100 100 100 89
100 36 10 13 98 97 6 88 100 77 11 96 98 46 72 96 20 100 67 3 0 0 0 0 0 0 5 4 0 0 1 5 3 0 2 2 16 5 3 5 4 5 28 78 35 9 100 100 100
97 98 98 100 100 100 100 100 96 29 70 95 100 100 54 100 100 100 100 43 56 5 40 97 8 0 1 2 5 5 36 29 3 0 0 1 5 4 4 9 97 100 94 94 100 100 100 100 100
67 100 98 90 100 100 100 100 100 100 100 99 96 100 100 100 73 100 100 100 5 5 4 37 46 6 0 2 1 8 100 100 89 36 3 0 0 2 0 0 2 3 78 99 78 87 100 100 98
78 99 100 100 40 58 11 16 95 100 100 100 62 100 100 95 92 79 100 100 100 99 86 15 100 69 88 30 8 30 85 100 24 53 100 72 2 0 0 0 0 0 36 49 29 72 100 100 100
83 69 60 9 44 47 98 4 5 5 0 58 100 99 100 100 100 100 100 78 100 77 86 83 66 100 33 100 26 5 32 65 100 72 89 100 79 97 32 4 1 3 2 9 5 98 100 100 100
5 19 3 39 6 0 7 0 67 33 4 3 99 98 100 100 100 100 100 85 16 5 9 84 57 100 100 74 76 4 20 40 36 53 36 77 62 73 95 97 21 1 0 0 24 81 100 100 83
17 12 4 5 5 78 2 0 0 0 0 0 5 20 57 83 94 82 49 75 37 0 21 100 90 100 57 26 5 57 100 76 80 100 97 20 37 7 100 93 98 100 22 82 100 100 100 70 100
45 1 2 2 0 2 0 0 0 0 0 0 0 0 84 100 5 2 0 2 47 31 12 96 25 10 5 11 100 100 100 100 98 63 100 100 57 5 70 100 100 93 100 100 100 100 100 100 100
92 75 62 4 8 9 7 2 0 0 0 2 0 0 0 0 0 0 0 0 0 1 0 3 4 40 99 100 100 100 100 100 100 100 100 100 42 24 40 97 99 100 100 100 100 100 100 100 100
18 9 93 75 13 70 5 0 3 0 0 0 0 0 0 0 0 0 0 0 0 0 0 0 3 68 92 100 100 100 100 100 100 100 100 98 100 100 38 80 60 61 100 100 100 100 100 100 100
5 5 2 5 28 5 1 8 94 0 0 0 0 0 0 0 0 0 0 0 0 0 0 3 4 100 100 100 100 100 52 5 81 100 100 100 100 100 100 91 75 99 100 100 100 100 100 100 100
4 4 0 4 5 10 5 0 0 0 0 0 0 0 0 0 0 0 0 0 0 0 0 0 0 0 80 100 100 100 100 100 100 100 98 100 100 100 100 100 100 100 100 100 100 100 100 100 100
0 0 0 5 3 2 3 0 0 0 0 0 0 0 0 0 0 0 0 0 0 0 2 3 2 0 0 3 96 100 96 100 100 100 95 99 92 100 100 100 100 100 100 100 100 100 100 100 73
1 0 0 0 4 4 0 0 0 0 0 0 0 0 0 0 0 0 0 0 0 0 0 0 5 5 0 0 0 3 34 100 100 100 100 100 100 48 96 100 100 100 100 100 100 100 100 100 92
0 0 0 0 0 0 0 0 0 0 0 0 0 0 0 0 0 0 0 0 0 0 0 0 0 2 24 0 1 2 38 100 100 100 100 100 100 74 49 100 100 100 100 100 100 98 100 100 100
0 0 3 0 0 0 0 0 0 0 0 0 0 0 0 0 0 0 0 0 0 0 0 0 0 8 5 62 59 28 6 48 100 100 100 100 100 100 100 68 100 97 100 100 100 100 100 100 100